Zurück zum Katalog

DMSP 5D-3 F19 DEB

AktivSSO
NORAD 43415·DEBRIS·🇺🇸 United States

Gestartet Apr 3, 2014 von Vandenberg Space Force Base

Loading…

Nächste Überflüge (nächste 24 Stunden)

TLE

AktuellSource: Space-Track

Epoche: Sep 14, 2026, 06:46 UTC

1 43415U 14015E   26257.28197209  .00002726  00000-0  97731-3 0  9995
2 43415  98.6114 279.8258 0009605 149.4186 210.7561 14.34735110640913

Verfolge DMSP 5D-3 F19 DEB in Echtzeit mit AllMySat

Download on the App Store